Regional Weather Roundup
Issued by NWS Wakefield, VA

Home | Current Version | Previous Version | Graphics & Text | Print | Product List | Glossary On
Versions: 1 2 3 4 5 6 7 8 9 10 11 12 13 14 15 16 17 18 19 20 21 22 23 24 25 26 27 28 29 30 31 32 33 34 35 36 37 38 39 40 41 42 43 44 45 46 47 48 49 50
000
ASUS41 KAKQ 121810
RWRAKQ

REGIONAL WEATHER ROUNDUP
NATIONAL WEATHER SERVICE WAKEFIELD VA
200 PM EDT SAT JUL 12 2014

Note: "fair" indicates few or no clouds below 12,000 feet with no
significant weather and/or obstructions to visibility. * = Denotes
station may not report precipitation (e.g., rain,snow,etc.),
thunder or fog.

VAZ042-051-052>054-056-121900-
NORTHERN VIRGINIA

CITY           SKY/WX    TMP DP  RH WIND       PRES   REMARKS
WASH NATIONAL  PTSUNNY   88  68  51 S13       30.18F
DULLES         MOSUNNY   85  68  56 S13G20    30.18F
FORT BELVOIR   NOT AVBL
QUANTICO       MOSUNNY   85  71  63 S10       30.19F
FREDERICKSBRG* MOSUNNY   89  68  49 S9G16     30.17F
STAFFORD*      PTSUNNY   87  68  53 S7        30.23S
WARRENTON      MOSUNNY   87  76  68 S9        30.18F HX  98
CULPEPER*      MOSUNNY  N/A N/A N/A SW6       30.19S
MANASSAS*      PTSUNNY   88  70  55 S10       30.18S
LEESBURG*      SUNNY     90  72  55 SW10      30.18F HX  96
WINCHESTER     PTSUNNY   86  66  51 S7        30.17S
$$

VAZ048-049-060>072-079>083-121900-
CENTRAL AND SOUTH CENTRAL VIRGINIA...AND NORTH CENTRAL NORTH CAROLINA

CITY           SKY/WX    TMP DP  RH WIND       PRES   REMARKS
RICHMOND       PTSUNNY   89  62  40 S7        30.19F
CHESTERFIELD*  PTCLDY    88  63  42 SE10      30.21F
HANOVER        SUNNY     89  63  41 SE7       30.20F
TAPPAHANNOCK*  MOSUNNY   89  56  31 E7        30.20F
CHARLOTTSVILLE MOSUNNY   84  67  56 S10       30.20S
ORANGE*        PTSUNNY   84  68  58 S6        30.21S
LOUISA*        MOSUNNY   86  70  58 S5        30.19S
FARMVILLE*     MOSUNNY   88  64  45 S7        30.18F
SOUTH HILL*    MOSUNNY   90  64  43 S8        30.26F
ROANOKE RAPIDS MOCLDY    88  68  51 S3        30.21F
RALEIGH        PTSUNNY   86  67  52 CALM      30.21F
$$

VAZ088>098-121900-
SOUTHEAST VIRGINIA

CITY           SKY/WX    TMP DP  RH WIND       PRES   REMARKS
NORFOLK        SUNNY     81  70  69 NE10      30.21F
VIRGINIA BEACH MOSUNNY   80  69  69 E7        30.21F
NORFOLK NAVAL  PTSUNNY   83  71  67 E10       30.22F
WEST POINT*    MOSUNNY   87  66  50 S6        30.22F
NEWPORT NEWS   MOSUNNY   86  70  58 SE9       30.21F
LANGLEY AFB    NOT AVBL
FORT EUSTIS    NOT AVBL
WILLIAMSBURG*  PTSUNNY   88  73  62 SE10      30.21F HX  96
FRANKLIN*      MOSUNNY   84  66  54 CALM      30.20F
WAKEFIELD      MOSUNNY   87  68  52 CALM      30.20F
$$

VAZ020-022-025-037-045-121900-
WESTERN AND SOUTHWEST VIRGINIA

CITY           SKY/WX    TMP DP  RH WIND       PRES   REMARKS
STAUNTON*      MOSUNNY   85  65  49 S13       30.23F
HOT SPRINGS VA CLOUDY    71  62  74 S6        30.37S HAZE
LYNCHBURG      PTSUNNY   85  68  56 VRB5      30.24S
DANVILLE       MOSUNNY   87  66  49 SW8       30.22F
MARTINSVILLE   MOSUNNY   90  66  45 W6        30.25F
ROANOKE        PTSUNNY   85  66  53 SE12G18   30.23F
BLACKSBURG     SUNNY     86  68  54 SE8       30.29F
DUBLIN*        PTSUNNY   85  63  47 SE8       30.27F
MARION*        PTSUNNY   85  66  54 SW6       30.30F
HILLSVILLE*    PTSUNNY   78  64  62 S6        30.30F
RICHLANDS*     MOCLDY    82  64  54 W6        30.29F
WISE*          MOSUNNY   82  54  36 SW5       30.30F
ABINGDON*      PTSUNNY   84  66  53 NW7       30.26F
$$

MDZ021>025-VAZ099-100-121900-
SOUTHERN MARYLAND AND THE DELMARVA PENINSULA

CITY           SKY/WX    TMP DP  RH WIND       PRES   REMARKS
PATUXENT RIVER PTSUNNY   81  71  71 SE14      30.20F
BAY BRIDGE APT   N/A     82  61  47 S8        30.20F
LEONARDTOWN    MOSUNNY   84  64  51 SE8       30.22S
DOVER          NOT AVBL
GEORGETOWN     MOSUNNY   83  68  60 SE14G20   30.21F
EASTON         MOSUNNY   86  68  54 SE6       30.24S
CAMBRIDGE      MOSUNNY   86  63  45 CALM      30.20S
SALISBURY      MOSUNNY   87  68  52 SE7G16    30.20F
OCEAN CITY     SUNNY     76  70  82 SE7       30.22F
WALLOPS ISLAND MOSUNNY   80  69  69 S9        30.23F
ACCOMACK*        N/A     79  66  65 E6        30.21F
$$

NCZ012>017-030>032-121900-
EASTERN NORTH CAROLINA

CITY           SKY/WX    TMP DP  RH WIND       PRES   REMARKS
ELIZABETH CITY SUNNY     82  70  66 E7        30.21F
AHOSKIE*       MOSUNNY   83  66  56 S6        30.21F
EDENTON*       SUNNY     82  71  68 CALM      30.21S
CURRITUCK*     MOSUNNY   83  67  58 NE6       30.23S
KILL DEVIL HLS MOSUNNY   79  70  72 NE6       30.20F
MANTEO         NOT AVBL
CAPE HATTERAS  MOSUNNY   83  69  62 N7        30.21S
GOLDSBORO      NOT AVBL
WASHINGTON     SUNNY     83  68  58 CALM      30.21S
GREENVILLE     MOSUNNY   86  68  54 NE6       30.21F HAZE
NEW BERN       MOSUNNY   87  69  54 NE5       30.21S
WILMINGTON     CLOUDY    84  71  65 SE7       30.20S
$$

VAZ048-121900-
ELSEWHERE

CITY           SKY/WX    TMP DP  RH WIND       PRES   REMARKS
HARRISBURG PA  LGT RAIN  80  68  66 VRB6      30.16S
BALTIMORE      PTSUNNY   85  67  54 S9        30.17F
ANNAPOLIS      SUNNY     82  65  56 SE15      30.19F
ANDREWS AFB    NOT AVBL
WILMINGTON DE  MOSUNNY   85  68  56 S14       30.20F
PHILADELPHIA   MOSUNNY   87  61  41 S9        30.18F
WILDWOOD NJ*   MOSUNNY   79  64  61 SE10      30.24S
ATLANTIC CITY  SUNNY     80  65  59 SE12      30.22F
HENDERSON NC   PTSUNNY   88  64  43 S5        30.22F
GREENSBORO     PTSUNNY   87  62  43 S5        30.22F
ROCKY MOUNT    PTSUNNY   87  69  54 VRB6      30.20F
FAYETTEVILLE   SUNNY     88  68  51 SE8       30.19F
CHARLOTTE      MOSUNNY   87  62  43 VRB7      30.23S
$$

VAZ100-121900-
MARINE

STATION/POSITION TIME  TEMP    WIND        PRES    WAVE   SWELL
                       AIR SEA DIR/SP/G            HT/PER HT/PER
                 (UTC) (F)     (DEG/KT/KT) (MB)    (FT/S) (FT/S)
44066 TX TWR #4  1800   70 72  100/  6/  6 1023.6F   2/ 7   2/ 7
CAPE MAY NJ      1800   74 72  140/  9/ 12 1023.2F
LEWES DE         1800   75 70  140/ 10/ 12 1022.7F
15NM E FENWICK I 1800   74 76              1023.7F   1/ 7
OCEAN-CITY-INLET 1800   75 71  130/  5/  7 1023.3F
WACHAPREAGUE VA  1800   76 81  100/  7/  8 1023.2F
THOMAS POINT MD  1800   79 80  160/ 12/ 13 1022.9F
GOOSES REEF MD   1800   79     170/ 10/ 12 1023.2F
COVE POINT MD    1800   76     170/ 12/ 13 1022.8F
SOLOMONS ISLAND  1800      82                N/A
BISHOPS HEAD MD  1800   78 83  250/  8/  9 1023.2R
PINEY POINT MD   1800          150/ 12/ 13   N/A
POTOMAC MD       1800   77     140/  8/ 10 1022.5S
CAMBRIDGE MD     1800   84 81  160/  5/ 11 1022.3S
LEWISETTA VA     1800   78 81  100/ 13/ 14 1022.5F
RAPPAHANNOCK LGT 1800          130/  8/ 10 1023.6F
STINGRAY PT      1800   77     160/  6/  8 1022.5F
YORK RVR RNG VA  1800   76     150/  9/ 11 1022.6F
YORKTOWN VA      1800   78 80  100/ 10/ 11 1022.8F
JAMESTOWN VA     1800   80     160/  4/  6   N/A
DOMINION TERM VA 1800   76      70/ 11/ 15 1023.2F
KIPTOPEKE VA     1800      76  140/ 10/ 12   N/A
CHES BAY BRIDGE  1800   74 77   70/  9/ 10 1022.7F
CAPE HENRY VA    1800   75      80/  6/  9 1022.2F
WILLOUBY STN VA  1800   81      90/ 11/ 12 1022.4F
S CRANEY ISL VA  1800           20/  7/  8 1022.9F
CAPE HENRY BUOY  1800      77                N/A     1/ 8
1ST LANDING BUOY 1800   75      90/  6/ 10 1023.1F
CAPE CHARLES BUO 1800      77                N/A     1/ 9
OFFSHORE WE BUOY 1800      77                N/A     2/ 8
64NM E OF VA BCH 1800   75 77   80/  8/ 12 1022.8F   2/ 9   2/ 9
DUCK PIER NC     1800   76 75   70/  6/  7 1022.6F
44056 DUCK FRF   1800                        N/A     1/ 9
OREGON INLET NC  1800   77 76   40/  6/  9 1023.0F
HATTERAS NC      1800   80 81   40/  6/  9 1023.6R
DIAMOND SHLS NC  1700          VRB 10/ 12  1023.0S   2/ 8   2/ 8
CAPE LOOKOUT NC  1700   79      70/  6/  6 1023.0F
$$


USA.gov is the U.S. government's official web portal to all federal, state and local government web resources and services.